Location: Bukit Nyuki
(2.5885°N, 113.7476°E)
Time: 16:26:38
(UTC+00:00)

USA 234 - Pass Details

Date: 18 May 2021
Orbit: 1102 x 1105 km, 123.0° (Epoch: 18 April)

Event Time Altitude Azimuth Distance (km) Brightness Sun altitude
Rises 20:16:07 0° 40° (NE) 3,906 7.1 -28.3°
Reaches altitude 10° 20:18:36 10° 42° (NE) 2,950 6.3 -27.7°
Maximum altitude 20:25:05 73° 126° (SE) 1,146 3.3 -26.2°
Enters shadow 20:27:31 41° 200° (SSW) 1,535 3.7 -25.7°
